Date,TemperatureHighF,TemperatureAvgF,TemperatureLowF,DewpointHighF,DewpointAvgF,DewpointLowF,HumidityHigh,HumidityAvg,HumidityLow,PressureMaxIn,PressureMinIn,WindSpeedMaxMPH,WindSpeedAvgMPH,GustSpeedMaxMPH,PrecipitationSumIn
2013-1-5,57.7,50.1,41.5,49.1,45.6,41.3,99,85,71,30.43,30.33,17,5,17,0.00
2013-1-6,52.3,49.4,42.8,49.2,45.1,41.5,96,85,70,30.43,30.19,15,4,15,0.00
2013-1-7,58.6,53.0,48.7,52.1,48.5,45.7,94,85,78,30.18,29.99,14,7,14,0.04
2013-1-8,56.5,50.4,41.2,50.6,45.0,37.3,87,82,74,30.25,29.98,19,7,19,0.00
2013-1-9,53.1,40.0,32.7,41.1,34.8,30.1,93,82,59,30.23,30.06,6,2,6,0.00
2013-1-10,45.0,44.4,44.1,37.7,37.3,37.0,77,76,75,30.03,29.98,14,10,21,0.09
2013-1-11,46.9,42.3,33.4,43.9,38.5,29.9,92,86,79,30.02,29.78,12,3,12,0.01
2013-1-12,46.2,44.0,41.0,43.7,38.4,31.8,92,81,68,30.04,29.73,15,8,17,0.01
2013-1-13,41.7,38.1,33.1,37.4,33.3,27.9,88,83,70,30.12,30.04,14,4,15,0.04
2013-1-14,44.6,41.1,36.3,39.3,35.8,31.1,86,82,69,30.06,29.84,20,12,24,0.04
2013-1-15,43.9,38.4,35.8,35.8,32.5,29.6,87,79,69,29.89,29.71,15,6,20,0.00
2013-1-16,42.4,40.9,39.7,40.1,36.3,33.7,92,84,76,29.85,29.69,17,8,17,0.14
2013-1-17,46.2,43.7,41.4,43.7,41.4,38.4,93,91,88,29.84,29.51,42,9,42,0.86
2013-1-18,41.4,37.4,35.4,38.7,34.8,32.6,95,90,88,29.51,29.24,37,18,45,5.53
2013-1-19,38.8,36.8,34.5,37.5,32.7,26.8,95,85,66,29.60,29.28,20,7,20,0.17
2013-1-20,37.9,37.2,35.4,30.2,27.8,25.2,77,69,62,29.56,29.36,17,9,20,0.01
2013-1-21,38.3,35.5,32.2,32.7,30.6,28.2,88,82,68,29.37,29.28,14,4,17,0.22
2013-1-22,36.1,32.6,28.4,31.8,28.8,25.0,88,86,82,29.74,29.34,8,2,8,0.01
2013-1-23,39.6,36.5,32.0,34.1,31.6,28.9,89,82,74,29.78,29.67,11,4,17,0.00
2013-1-25,47.5,45.7,43.3,44.4,41.6,36.5,89,85,76,29.67,29.34,33,15,40,0.41
2013-1-26,57.7,47.1,40.3,48.7,40.0,32.8,83,76,68,29.67,28.97,40,13,42,0.23
2013-1-27,56.1,43.1,37.6,48.7,35.0,31.1,85,73,62,29.42,28.95,30,19,40,0.94
2013-1-28,52.5,46.3,39.2,43.8,36.8,31.3,84,70,61,29.51,29.07,37,19,46,4.68
2013-1-29,60.1,50.5,45.7,52.0,42.3,37.4,88,74,67,29.44,29.12,36,16,44,1.36
2013-1-30,50.2,46.9,44.6,40.5,36.8,32.7,74,68,56,29.85,29.34,35,19,42,2.08
2013-1-31,51.8,46.2,41.4,41.0,35.2,32.8,82,66,58,29.83,29.51,35,16,35,1.14
2013-2-1,46.0,43.3,37.8,38.7,34.1,29.2,77,70,63,29.88,29.39,29,17,36,0.45
2013-2-2,46.2,39.6,34.5,32.3,29.2,27.7,77,67,52,30.25,29.89,16,8,17,0.00
2013-2-3,52.9,49.5,42.1,46.3,43.3,34.3,85,79,67,30.14,29.84,30,17,30,0.09
2013-2-4,51.1,43.9,33.4,46.2,35.7,28.7,85,73,59,29.88,29.67,32,20,34,0.55
2013-2-5,45.7,39.4,33.8,37.5,31.0,25.2,79,72,65,29.72,29.39,35,20,42,0.86
2013-2-6,45.7,41.0,36.9,33.2,30.1,26.9,74,65,50,30.27,29.72,25,14,33,0.02
2013-2-7,45.1,40.3,38.3,40.3,35.4,31.6,86,83,70,30.14,29.87,101,11,101,0.03
2013-2-8,47.1,43.4,40.5,40.9,37.3,34.1,83,79,76,30.23,30.15,16,11,17,0.00
2013-2-9,52.3,46.7,43.7,42.2,40.5,38.9,85,79,67,30.17,29.69,18,8,27,0.00
2013-2-10,44.6,42.2,41.0,42.1,39.0,37.3,91,88,82,29.66,29.20,16,10,18,0.09
2013-2-11,41.2,39.8,38.8,38.5,36.8,35.7,91,89,84,29.80,29.23,15,6,15,0.02
2013-2-12,41.2,39.5,38.3,37.5,36.3,35.5,91,88,84,30.01,29.80,14,6,15,0.01
2013-2-13,56.3,47.1,41.0,48.5,42.2,37.4,88,83,74,29.96,29.65,22,10,22,0.03
2013-2-14,50.4,46.8,40.1,43.9,38.9,9.6,83,74,28,30.01,29.67,113,14,113,0.00
2013-2-15,53.8,45.2,41.0,39.6,36.1,33.1,82,71,49,30.12,30.02,17,5,17,0.00
2013-2-16,59.0,46.7,40.5,46.0,40.5,34.8,87,79,60,30.09,30.01,21,7,21,0.00
2013-2-17,51.4,46.1,43.9,40.8,39.2,33.4,82,77,64,30.03,29.93,24,11,24,0.00
2013-2-18,48.2,44.0,40.5,36.9,35.8,34.6,84,73,59,30.07,29.97,17,7,17,0.10
2013-2-19,51.1,41.8,32.4,38.5,34.0,27.8,85,74,55,30.06,29.99,14,5,49,0.00
2013-2-20,45.7,41.1,36.3,37.1,33.9,28.3,87,75,69,30.13,30.01,20,10,24,0.00
2013-2-21,45.0,38.6,36.0,41.0,29.2,24.6,88,69,62,30.15,29.58,23,12,27,0.02
2013-2-22,56.3,38.3,34.5,48.5,24.8,20.3,84,58,52,30.01,29.47,22,8,22,0.02
2013-2-23,38.3,36.0,33.4,31.1,25.7,20.1,83,67,50,30.07,29.97,14,5,14,0.03
2013-2-24,50.0,38.7,35.8,33.2,28.0,23.3,81,66,47,30.24,30.06,14,5,17,0.03
2013-2-25,48.2,41.9,33.3,36.6,32.3,28.7,85,69,56,30.09,29.99,11,4,11,0.01
2013-2-26,43.0,41.4,36.1,36.6,34.7,30.6,86,77,69,30.17,30.03,12,4,14,0.00
2013-2-27,44.2,41.9,40.3,37.3,35.1,33.9,82,77,71,30.17,30.12,11,6,13,0.00
2013-2-28,40.5,40.3,40.1,35.7,35.3,34.7,83,82,81,30.12,30.07,7,4,9,0.00
2013-3-1,48.9,43.9,37.4,41.4,37.4,31.0,91,78,56,30.05,29.98,12,4,12,0.00
2013-3-2,48.4,44.4,36.7,34.4,33.1,30.5,80,65,56,29.92,29.82,10,4,11,0.00
2013-3-3,47.8,43.3,37.9,37.3,34.1,32.1,82,70,56,29.72,29.63,11,4,14,0.00
2013-3-4,46.0,40.6,34.5,34.2,31.7,28.7,81,71,61,29.42,29.24,13,5,16,0.00
2013-3-5,52.0,41.6,31.3,39.7,34.6,26.6,86,77,55,29.23,29.10,12,4,12,0.00
2013-3-6,45.3,43.5,41.7,42.6,40.1,37.8,90,87,84,29.10,28.99,5,2,7,0.02
2013-3-7,46.6,45.9,45.5,43.8,43.6,43.0,92,91,90,28.87,28.82,13,8,17,0.06
2013-3-8,48.2,47.0,45.9,46.0,45.0,44.0,93,93,92,29.05,28.95,7,4,9,0.05
2013-3-9,46.2,44.3,41.5,44.0,42.2,38.8,93,92,90,29.24,29.02,16,8,22,0.04
2013-3-10,40.1,38.9,35.8,33.8,27.5,15.5,78,64,43,29.46,29.26,38,22,40,0.41
2013-3-11,35.8,33.6,30.9,24.0,19.7,13.9,75,57,43,29.62,29.47,34,21,41,1.16
2013-3-12,42.8,39.6,33.3,29.4,25.5,18.9,71,57,44,29.57,29.49,16,9,20,0.00
2013-3-13,46.8,41.8,37.4,35.3,32.7,29.2,85,71,53,29.62,29.45,17,8,21,0.00
2013-3-14,49.6,41.9,32.7,38.4,32.9,25.7,77,70,63,29.57,29.31,17,10,21,0.00
2013-3-15,52.3,45.9,41.0,39.5,34.7,31.6,82,65,49,29.00,28.90,17,6,27,0.03
2013-3-16,48.9,40.2,33.3,37.3,32.0,27.7,82,73,61,28.90,28.76,11,4,11,0.02
2013-3-17,43.0,39.1,36.5,37.2,34.5,31.5,86,83,79,28.70,28.63,15,5,18,0.06
2013-3-18,46.4,39.6,35.8,36.9,34.2,31.7,90,81,65,28.98,28.69,21,10,25,0.06
2013-3-19,41.5,37.4,34.9,36.5,33.0,30.0,88,84,79,29.05,28.95,11,4,12,0.10
2013-3-20,48.9,39.4,35.8,37.4,33.9,31.4,89,81,64,29.44,29.04,14,5,14,0.01
2013-3-21,44.8,41.6,39.6,36.4,34.2,32.6,83,75,64,29.35,29.17,36,21,39,1.07
2013-3-22,41.7,41.0,39.2,38.1,37.3,35.4,88,86,83,29.23,29.01,29,13,30,0.79
2013-3-23,39.2,38.5,37.9,35.0,34.6,33.2,87,86,79,29.35,29.27,16,11,21,0.00
2013-3-24,36.9,36.2,35.4,25.9,24.8,23.2,68,63,58,29.56,29.48,25,18,31,0.05
2013-3-25,39.2,37.8,36.3,25.3,23.6,20.6,60,56,52,29.65,29.57,27,18,34,0.03
2013-3-26,36.3,35.9,35.4,22.6,21.2,20.2,57,55,52,29.61,29.59,22,13,30,0.00
2013-3-27,39.0,35.3,32.9,30.3,26.4,19.2,83,70,51,29.58,29.48,26,11,26,0.00
2013-3-28,71.8,53.0,34.5,44.8,31.7,23.9,73,47,31,29.59,29.46,16,5,21,0.08
2013-3-29,70.2,64.6,58.1,33.2,30.9,28.5,34,28,23,29.53,29.46,0,0,0,0.00
2013-3-30,70.7,64.7,59.4,32.0,29.3,26.3,29,26,23,29.60,29.47,0,0,0,0.00
2013-3-31,66.9,62.8,58.8,31.7,28.9,25.4,33,28,25,29.55,29.43,0,0,0,0.00
2013-4-1,68.7,62.8,56.8,32.5,29.8,26.9,33,29,25,29.55,29.41,0,0,0,0.00
2013-4-2,64.2,62.3,57.7,33.0,31.1,26.8,32,31,28,29.65,29.55,0,0,0,0.00
2013-4-3,64.2,64.2,64.2,33.0,33.0,33.0,31,31,31,29.65,29.65,0,0,0,0.00
2013-4-4,64.2,64.2,64.2,33.0,33.0,33.0,31,31,31,29.65,29.65,0,0,0,0.00
2013-4-5,64.2,64.2,64.2,33.0,33.0,33.0,31,31,31,29.65,29.65,0,0,0,0.00
2013-4-6,64.2,64.2,64.2,33.0,33.0,33.0,31,31,31,29.65,29.65,0,0,0,0.00
2013-4-7,64.2,64.2,64.2,33.0,33.0,33.0,31,31,31,29.65,29.65,0,0,0,0.00
2013-4-8,64.2,64.2,64.2,33.0,33.0,33.0,31,31,31,29.65,29.65,0,0,0,0.00
2013-4-11,70.7,69.8,68.5,49.5,47.7,45.8,47,45,44,28.90,28.88,0,0,0,0.00
2013-4-12,78.8,70.8,66.0,50.1,46.6,43.7,45,42,33,29.31,28.89,0,0,0,0.00
2013-4-13,75.7,70.5,69.1,48.8,46.0,43.2,46,42,34,29.32,29.02,0,0,0,0.00
2013-4-14,80.1,72.9,69.4,50.7,48.9,47.3,47,43,34,29.19,29.01,0,0,0,0.00
2013-4-15,83.3,75.7,69.8,52.8,48.2,45.7,43,38,31,29.43,29.13,0,0,0,0.00
2013-4-16,85.1,77.2,71.2,48.3,42.2,37.1,40,29,21,29.55,29.11,0,0,0,0.00
2013-4-17,84.0,77.2,71.8,55.0,47.1,40.0,38,35,29,29.52,28.84,0,0,8,0.00
2013-4-18,82.0,74.8,70.0,48.4,45.5,43.2,40,35,26,29.72,28.88,0,0,1,0.00
2013-4-19,84.0,75.6,68.7,48.8,43.4,37.5,37,32,21,30.09,29.73,0,0,1,0.05
2013-4-20,86.4,76.3,70.3,46.7,43.2,40.2,35,31,23,30.09,29.85,0,0,0,0.00
2013-4-21,83.1,74.3,70.0,46.7,43.0,40.3,36,33,23,29.84,29.58,0,0,0,0.00
2013-4-22,82.6,75.1,69.4,54.3,46.9,41.4,43,37,33,29.60,29.44,0,0,0,0.00
2013-4-23,83.8,77.5,71.4,54.5,49.6,45.3,42,38,34,29.76,29.57,0,0,0,0.00
2013-4-24,82.9,77.3,72.0,56.2,51.5,47.0,47,41,34,29.88,29.66,0,0,0,0.00
2013-4-25,79.0,73.5,68.9,51.7,46.1,39.6,46,38,26,29.85,29.72,0,0,5,0.00
2013-4-26,81.5,74.4,68.7,43.1,39.5,34.6,36,29,19,29.79,29.67,0,0,0,0.00
2013-4-27,81.1,76.1,68.0,39.7,38.4,35.7,33,26,22,29.82,29.70,0,0,0,0.00
2013-4-28,78.4,71.7,68.4,45.8,41.6,38.5,36,34,31,29.74,29.46,0,0,0,0.00
2013-4-29,80.1,64.6,46.4,44.2,39.0,31.7,68,41,27,29.87,29.53,12,2,14,0.04
2013-4-30,63.0,49.6,40.1,42.6,38.5,35.6,89,67,43,29.99,29.88,5,2,6,0.00
2013-5-1,67.1,52.7,44.1,48.7,41.9,35.7,85,68,37,29.94,29.87,7,2,8,0.00
2013-5-2,66.9,53.9,42.8,45.8,43.0,40.6,94,69,40,29.93,29.76,6,2,10,0.00
2013-5-3,62.4,55.8,50.4,51.3,46.6,44.5,95,72,56,29.76,29.49,11,4,14,0.03
2013-5-4,68.0,54.5,47.7,51.8,44.3,40.2,95,71,42,29.63,29.44,8,4,11,0.01
2013-5-5,71.4,59.3,54.7,51.8,49.5,46.2,86,71,43,29.72,29.62,9,4,12,0.00
2013-5-6,76.6,59.7,52.3,55.0,49.5,46.2,91,70,46,29.72,29.63,7,2,8,0.01
2013-5-7,71.1,56.9,49.3,55.5,49.3,46.1,90,76,51,29.67,29.33,4,1,8,0.00
2013-5-8,73.2,56.3,48.4,55.5,48.0,37.6,99,76,43,29.33,28.93,24,6,25,0.38
2013-5-9,57.2,49.7,45.9,49.6,43.7,37.3,93,80,63,29.06,28.74,30,16,30,0.42
2013-5-10,61.5,54.6,46.6,50.2,41.8,31.4,85,63,35,29.27,29.20,25,13,31,0.15
2013-5-11,54.0,49.2,45.0,47.5,41.4,35.7,96,75,54,29.49,29.20,31,15,31,0.42
2013-5-12,59.2,51.7,44.6,51.8,44.8,37.4,89,78,60,29.50,29.33,32,13,33,0.21
2013-5-13,52.7,47.5,43.7,42.4,38.4,36.6,82,71,56,29.39,29.25,24,16,34,0.39
2013-5-14,57.7,48.7,42.4,43.6,38.7,34.2,90,70,45,29.26,28.90,21,10,26,0.00
2013-5-15,54.9,47.6,42.8,42.6,39.1,34.8,89,73,51,29.08,28.94,26,13,32,0.03
2013-5-16,52.2,46.2,39.0,45.3,40.2,34.0,95,80,61,29.17,29.00,9,4,12,0.14
2013-5-17,59.7,48.5,38.3,46.6,42.2,38.0,99,80,50,29.44,29.17,16,6,17,0.00
2013-5-18,54.3,50.4,46.2,47.3,44.0,38.5,88,79,63,29.44,29.27,17,10,19,0.00
2013-5-19,63.1,55.4,49.5,50.8,46.4,43.3,92,73,51,29.58,29.33,11,4,14,0.00
2013-5-20,60.6,56.8,52.7,53.4,51.1,47.7,86,81,75,29.98,29.55,21,10,21,0.00
2013-5-21,64.9,57.3,48.4,49.8,46.7,44.3,87,69,54,30.01,29.65,21,12,21,0.00
2013-5-22,58.5,52.9,48.7,49.0,41.5,36.3,88,67,46,29.79,29.71,24,13,24,0.00
2013-5-23,52.0,47.5,42.4,39.0,36.6,31.3,83,66,45,29.72,29.62,31,15,33,0.14
2013-5-24,56.7,53.2,46.0,40.5,38.7,37.1,71,58,51,29.73,29.57,23,13,25,0.00
2013-5-25,61.0,57.3,52.2,45.5,42.9,37.4,72,59,43,29.75,29.68,18,7,19,0.00
2013-5-26,65.8,61.1,54.3,49.8,46.5,41.5,73,59,45,29.66,29.37,16,8,22,0.00
2013-5-27,61.2,54.0,49.3,50.0,46.0,42.1,95,75,53,29.03,28.98,24,7,24,0.10
2013-5-28,58.5,55.0,50.0,47.1,45.0,42.7,89,70,60,29.21,29.10,13,7,15,0.01
2013-5-29,67.1,60.7,52.7,51.9,48.0,44.9,77,64,49,29.53,29.33,17,12,20,0.10
2013-5-30,68.7,60.0,51.4,49.5,46.3,43.4,77,61,44,29.68,29.52,22,13,24,0.00
2013-5-31,61.3,56.3,50.7,54.3,47.1,39.2,88,72,55,29.83,29.68,16,9,19,0.00
2013-6-1,61.0,52.4,47.1,49.8,43.5,39.4,84,72,58,29.93,29.81,18,8,19,0.00
2013-6-2,62.8,59.1,53.1,50.6,48.1,46.1,82,67,56,30.00,29.96,11,7,11,0.00
2013-6-3,70.0,64.1,54.0,55.3,51.4,46.9,82,64,50,30.04,30.01,11,5,11,0.00
2013-6-4,67.1,62.6,56.1,53.1,49.3,42.5,79,62,44,29.96,29.84,11,7,11,0.00
2013-6-5,59.7,59.0,58.3,51.8,51.4,51.1,77,76,75,29.75,29.75,6,6,8,0.00
2013-6-6,65.1,56.2,48.9,56.8,50.2,47.0,96,81,60,29.79,29.68,13,5,13,0.00
2013-6-7,69.6,64.0,58.8,54.8,51.3,48.7,84,64,52,29.84,29.81,12,7,14,0.00
2013-6-8,65.7,61.6,55.9,53.8,51.8,48.5,77,71,57,29.80,29.66,14,7,16,0.00
2013-6-9,69.8,66.1,56.1,52.5,47.8,43.3,71,52,41,29.59,29.51,11,7,15,0.00
2013-6-10,65.8,61.8,55.8,53.3,48.7,46.4,78,63,53,29.46,29.38,24,14,27,0.00
2013-6-11,66.7,58.6,52.0,62.4,55.6,51.4,99,90,77,29.24,29.18,19,6,24,0.03
2013-6-12,62.4,56.2,53.8,55.4,53.2,49.1,97,90,64,29.26,29.10,15,6,15,0.02
2013-6-13,63.1,57.2,49.8,51.4,48.3,44.1,99,74,53,29.45,29.20,18,11,27,0.10
2013-6-14,65.1,56.9,50.2,53.3,50.1,46.4,98,79,57,29.33,28.95,27,15,30,0.11
2013-6-15,66.4,56.9,48.4,53.9,46.4,42.2,84,69,44,29.26,29.04,22,12,28,0.04
2013-6-16,65.5,58.3,52.9,52.3,50.6,48.6,97,76,55,29.46,29.33,17,7,20,0.02
2013-6-17,62.1,58.4,52.7,56.0,53.6,51.6,97,84,74,29.58,29.55,13,7,14,0.06
2013-6-18,72.5,65.5,61.0,55.6,54.1,52.2,76,67,53,29.55,29.50,9,6,13,0.00
2013-6-19,69.4,59.0,54.3,53.4,49.1,45.2,81,71,44,29.62,29.55,14,6,17,0.00
2013-6-20,69.3,63.8,59.2,54.7,50.7,45.6,83,63,48,29.80,29.35,15,6,15,0.00
2013-6-21,68.7,60.5,56.5,57.3,54.8,49.5,95,82,54,29.41,29.21,15,8,18,0.00
2013-6-22,64.8,60.5,55.9,53.3,50.5,48.6,85,70,59,29.15,28.98,28,16,34,0.28
2013-6-23,59.5,56.1,54.0,51.8,49.0,43.1,87,77,59,29.67,29.15,33,18,33,0.18
2013-6-24,63.9,60.1,53.6,49.1,45.3,42.5,82,59,49,29.84,29.77,15,7,20,0.00
2013-6-25,66.7,60.6,50.9,54.9,50.7,46.9,87,70,54,29.99,29.84,9,3,10,0.00
2013-6-26,67.5,61.1,55.4,54.1,49.0,45.5,83,65,49,30.06,29.99,12,6,14,0.00
2013-6-27,65.5,58.8,53.8,62.1,53.6,46.4,94,83,74,30.04,29.81,20,9,24,0.05
2013-6-30,65.3,59.8,55.6,53.9,50.6,45.2,78,72,57,29.77,29.54,20,9,20,0.01
2013-7-1,66.6,55.0,53.2,47.6,46.5,44.4,79,73,47,29.57,29.46,15,8,15,0.00
2013-7-2,65.7,59.1,54.5,59.5,53.0,46.5,91,81,66,29.46,29.00,19,7,19,0.14
2013-7-3,73.4,65.8,54.5,60.0,56.0,51.6,90,71,59,29.40,29.07,16,7,16,0.00
2013-7-4,66.0,63.3,56.8,59.3,55.3,47.5,85,76,53,29.79,29.35,24,8,24,0.00
2013-7-5,73.6,65.1,54.3,56.4,51.7,46.0,74,62,47,29.92,29.81,11,6,11,0.00
2013-7-6,73.0,67.3,62.2,58.0,57.0,54.9,83,70,58,30.01,29.92,9,4,11,0.00
2013-7-7,73.9,65.1,62.2,61.4,59.1,54.6,89,81,58,30.15,30.01,11,5,12,0.00
2013-7-8,74.3,66.4,58.3,59.8,56.5,52.4,93,72,54,30.15,30.06,8,4,10,0.00
2013-7-9,83.5,76.1,66.4,60.0,55.6,49.7,76,50,35,30.01,29.93,8,5,10,0.00
2013-7-10,74.8,65.6,60.8,61.4,59.3,57.6,92,81,63,29.94,29.89,13,5,15,0.00
2013-7-11,74.5,66.6,57.6,62.8,58.5,56.2,99,77,58,29.90,29.85,11,4,17,0.00
2013-7-12,83.5,71.8,57.0,59.2,56.7,53.1,88,61,41,29.86,29.82,11,4,13,0.00
2013-7-13,73.9,68.2,59.0,64.0,59.9,54.8,91,75,64,29.92,29.83,11,6,14,0.00
2013-7-14,76.1,66.3,57.6,60.8,57.5,53.9,89,74,56,29.91,29.79,10,4,14,0.00
2013-7-15,72.0,65.3,57.9,59.5,55.1,53.2,90,70,53,29.84,29.80,21,8,21,0.00
2013-7-16,73.4,67.0,60.6,59.2,56.1,52.6,84,69,52,29.83,29.80,12,5,14,0.00
2013-7-17,79.3,70.8,65.3,59.3,56.4,52.2,79,62,42,29.91,29.83,11,4,12,0.00
2013-7-18,77.9,69.6,58.8,61.0,56.1,52.0,88,64,47,29.95,29.91,12,4,13,0.00
2013-7-19,81.0,69.4,61.5,65.8,62.4,60.7,99,80,53,29.93,29.83,11,4,13,0.00
2013-7-20,74.1,68.7,62.6,65.3,61.6,59.9,97,79,65,29.84,29.75,14,6,17,0.00
2013-7-21,71.8,65.1,59.9,60.5,57.9,55.9,95,79,58,29.75,29.60,12,5,15,0.00
2013-7-22,75.7,67.2,61.5,64.4,61.3,55.8,92,82,64,29.60,29.47,17,6,18,0.00
2013-7-23,78.4,68.4,61.5,63.7,61.1,56.4,96,79,49,29.49,29.38,16,6,19,0.00
2013-7-24,73.6,66.7,61.2,62.3,60.1,57.5,94,80,65,29.42,29.37,19,6,19,0.00
2013-7-25,75.0,64.7,59.5,65.0,61.0,58.2,99,88,66,29.40,29.33,11,4,11,0.07
2013-7-26,72.3,66.0,58.3,62.2,58.3,54.3,89,76,64,29.42,29.37,15,5,15,0.01
2013-7-27,72.7,63.8,55.6,60.7,57.1,51.2,95,79,63,29.40,29.19,14,6,15,0.00
2013-7-28,73.0,63.1,54.9,63.2,57.8,53.8,97,84,54,29.20,29.11,12,4,17,0.03
2013-7-29,79.2,65.8,59.5,60.7,57.5,51.9,97,76,45,30.52,29.15,8,2,8,0.17
2013-7-30,74.5,66.1,56.8,55.2,51.6,47.8,77,61,42,29.62,29.17,21,8,25,0.00
2013-7-31,73.9,62.5,57.6,68.2,57.8,52.3,99,85,72,29.59,29.15,15,6,21,0.08
2013-8-1,71.8,66.3,63.1,65.5,63.1,61.5,97,89,76,29.38,29.03,18,8,20,0.02
2013-8-2,76.3,67.4,60.3,63.7,54.9,49.6,97,66,45,29.47,28.99,21,8,26,0.00
2013-8-3,73.0,62.7,57.7,58.3,52.6,49.9,93,70,45,29.57,29.09,19,9,27,0.10
2013-8-4,69.3,62.7,56.7,61.2,56.9,52.5,98,82,63,29.49,29.07,13,4,13,0.04
2013-8-5,69.3,62.0,57.9,59.6,53.6,45.7,99,77,45,29.33,28.95,17,8,23,0.02
2013-8-6,69.3,62.4,57.0,56.2,53.1,48.4,86,72,54,29.32,28.86,12,5,17,0.00
2013-8-7,71.6,62.7,54.5,55.7,52.5,49.7,87,70,47,29.32,28.74,13,4,14,0.00
2013-8-8,77.2,65.9,59.4,60.0,54.0,50.7,85,67,43,29.50,28.90,23,6,23,0.00
2013-8-9,65.3,61.7,58.5,55.8,51.8,48.4,88,71,55,29.50,29.13,20,10,24,0.01
2013-8-10,73.9,64.0,57.7,55.7,52.2,49.5,77,66,47,29.52,28.94,16,7,24,0.00
2013-8-11,69.8,60.9,55.6,53.4,50.8,45.3,90,71,43,29.30,28.92,19,11,24,0.02
2013-8-12,65.8,60.1,54.7,54.6,48.9,43.7,84,68,46,29.27,28.52,20,12,27,0.03
2013-8-13,71.6,61.6,54.5,57.7,54.4,47.3,97,78,61,30.10,28.42,15,7,16,0.00
2013-8-14,71.8,60.0,57.6,64.2,54.8,52.8,88,83,67,30.24,28.64,4,3,24,0.00
2013-8-15,72.9,67.5,63.9,65.2,61.8,58.1,95,82,66,30.00,29.79,14,5,21,0.09
2013-8-16,71.8,64.3,55.8,60.1,54.6,52.3,93,72,51,29.98,29.65,21,8,24,0.01
2013-8-17,76.6,65.6,57.9,64.3,57.6,53.1,90,76,64,29.81,29.40,27,10,30,0.06
2013-8-18,69.4,61.4,56.8,53.4,50.5,46.1,85,69,46,29.61,29.26,17,10,19,0.00
2013-8-19,71.2,65.5,59.7,54.1,52.1,48.8,79,63,45,30.06,29.17,21,9,21,0.00
2013-8-20,70.0,65.6,59.2,56.1,53.6,52.1,83,66,54,30.75,29.67,12,6,17,0.00
2013-8-21,72.5,67.2,62.1,59.8,57.9,55.5,85,73,61,30.70,30.06,17,9,26,0.00
2013-8-22,68.9,62.3,58.1,58.6,57.4,55.8,95,85,69,30.67,30.45,13,6,15,0.00
2013-8-23,64.9,60.8,56.5,61.3,58.5,55.6,97,92,86,30.50,30.37,11,3,13,0.10
2013-8-24,64.2,58.3,51.6,56.0,51.0,45.4,97,78,53,30.55,30.34,13,7,18,0.00
2013-8-25,69.3,63.1,58.8,58.3,56.7,55.2,96,80,65,30.64,29.03,10,5,13,0.00
2013-8-26,68.9,60.2,57.2,56.9,55.1,53.2,92,84,64,30.35,28.28,11,5,14,0.00
2013-8-27,68.7,65.0,59.7,60.9,59.7,58.6,96,83,72,30.31,29.21,9,4,10,0.01
2013-8-28,66.4,64.2,57.0,60.7,55.2,49.0,82,73,58,30.31,28.24,18,8,18,0.03
2013-8-29,75.2,66.3,60.1,58.9,57.2,54.8,85,73,55,29.71,29.03,22,8,22,0.00
2013-8-30,72.1,63.8,55.2,60.8,56.1,48.5,93,77,60,29.59,29.06,29,10,31,0.05
2013-8-31,64.2,59.0,52.5,48.6,45.4,41.1,73,61,51,30.07,29.58,21,10,23,0.00
2013-9-1,64.6,58.7,54.0,51.3,48.7,46.0,77,70,60,30.15,29.87,28,13,28,0.00
2013-9-2,72.1,68.6,62.4,60.9,59.7,58.0,87,74,66,30.07,29.74,21,11,23,0.17
2013-9-3,76.8,67.4,58.3,60.3,55.9,49.2,91,69,38,30.05,29.48,17,4,17,0.00
2013-9-4,77.7,63.6,50.0,59.2,52.1,42.1,96,69,28,29.88,28.16,17,5,17,0.00
2013-9-5,65.5,59.1,53.1,55.5,47.7,38.6,93,68,39,28.65,27.08,20,7,21,0.02
2013-9-6,58.8,53.7,51.3,49.9,45.8,42.3,88,76,55,28.32,26.59,14,8,14,0.00
2013-9-7,58.5,50.8,49.1,47.4,45.9,42.3,91,84,55,31.60,26.81,21,13,28,0.15
2013-9-8,58.8,53.9,48.2,50.6,48.0,44.2,93,81,69,31.89,27.84,17,8,17,0.02
2013-9-9,64.0,55.5,46.2,51.3,47.9,43.2,92,77,56,31.93,29.44,15,7,23,0.00
2013-9-10,64.4,55.2,50.4,51.6,48.9,46.9,93,80,56,32.51,28.87,21,11,21,0.00
2013-9-11,64.2,58.9,53.8,61.3,55.7,49.8,95,89,81,33.19,31.11,23,12,25,0.03
2013-9-12,70.2,63.6,57.7,63.4,60.3,53.9,96,89,75,33.33,32.31,17,8,18,0.04
2013-9-13,57.9,54.6,52.0,53.2,47.8,41.9,94,79,57,32.99,31.85,11,6,12,0.00
2013-9-14,63.5,54.1,48.0,46.8,44.7,42.9,89,72,51,31.86,29.61,11,6,13,0.00
2013-9-15,65.1,56.1,49.3,59.0,45.0,36.1,84,67,42,31.09,28.10,34,14,45,0.77
2013-9-16,57.4,51.1,47.7,44.8,41.3,39.9,77,69,55,30.01,26.60,34,19,39,0.22
2013-9-17,53.4,51.2,49.6,51.5,47.1,41.4,99,87,69,30.17,26.59,23,8,25,0.21
2013-9-18,58.1,52.5,48.6,50.1,45.9,41.5,99,79,58,29.99,26.62,24,11,30,0.04
2013-9-19,64.4,57.0,49.8,56.8,47.9,43.1,93,72,56,31.20,27.39,31,14,36,0.33
2013-9-20,67.1,57.0,52.2,48.6,45.8,43.6,82,67,46,31.84,28.39,17,5,21,0.00
2013-9-21,78.4,66.3,54.3,63.0,57.8,48.6,94,75,55,33.70,30.01,19,5,27,0.00
2013-9-22,79.3,67.9,60.4,59.7,57.8,55.3,92,71,50,33.96,31.95,17,6,20,0.00
2013-9-23,72.9,63.6,56.8,61.8,59.3,56.0,97,87,67,33.96,33.10,14,6,19,0.00
2013-9-24,68.4,59.8,56.8,61.5,57.6,56.6,99,93,70,33.88,32.83,11,5,13,0.02
2013-9-25,60.1,57.7,56.5,59.8,57.4,56.2,99,99,99,33.46,32.37,8,3,8,0.01
2013-9-26,58.8,57.8,56.8,58.6,57.5,56.6,99,99,97,33.14,32.32,11,4,12,0.01
2013-9-27,67.3,60.3,55.8,62.3,56.8,53.8,99,89,68,33.61,32.14,11,4,12,0.00
2013-9-28,66.2,58.5,52.2,56.8,54.6,50.8,99,87,66,32.68,31.60,8,3,9,0.00
2013-9-29,65.3,58.8,54.1,55.4,53.6,50.7,94,83,69,32.88,31.67,16,6,17,0.01
2013-9-30,59.5,57.8,54.3,58.1,55.2,52.6,96,91,84,32.38,31.41,11,6,16,0.00
2013-10-1,59.9,58.3,55.9,58.2,56.8,54.7,98,95,86,33.04,31.53,16,7,22,0.07
2013-10-2,62.2,60.4,58.3,61.5,59.9,58.0,99,98,96,32.70,31.78,14,8,17,0.13
2013-10-3,63.5,61.1,59.2,61.6,60.2,58.6,99,97,90,33.01,31.88,17,5,18,0.02
2013-10-4,64.0,59.2,57.6,59.5,57.6,54.7,99,94,74,32.99,32.02,16,8,16,0.00
2013-10-9,49.3,46.8,44.6,38.7,37.7,35.5,79,71,59,30.99,27.96,19,12,19,0.00
2013-10-10,54.9,47.6,41.7,40.4,38.1,36.3,84,70,50,33.12,26.66,18,8,18,0.00
2013-10-11,57.9,52.4,46.6,49.7,44.7,38.7,82,75,65,33.21,31.05,23,14,23,0.00
2013-10-12,55.4,53.8,51.8,51.9,48.3,45.0,89,82,74,32.36,30.47,20,10,21,0.00
2013-10-13,54.7,53.0,50.5,51.8,47.7,43.8,92,82,70,32.98,31.73,14,7,16,0.00
2013-10-14,56.5,52.7,49.8,49.5,46.3,44.7,93,79,68,31.93,29.81,17,8,19,0.00
2013-10-15,62.2,52.2,44.1,52.3,46.7,41.5,95,82,62,30.70,27.95,9,4,13,0.00
2013-10-16,58.6,53.8,50.7,53.0,50.3,48.7,98,88,78,30.98,29.35,23,10,24,0.39
2013-10-17,66.6,57.9,53.8,54.4,51.1,49.5,92,79,59,31.33,29.65,18,9,23,0.39
2013-10-18,57.6,56.3,53.2,56.5,55.0,51.0,97,95,91,33.69,30.69,29,9,29,5.04
2013-10-19,63.1,58.7,52.9,57.8,54.6,50.4,97,87,67,33.91,33.04,17,5,17,0.06
2013-10-20,63.3,56.6,51.3,53.8,50.8,49.1,95,82,62,33.62,32.45,18,6,20,0.16
2013-10-21,64.2,56.8,50.0,61.3,53.6,46.3,97,89,76,32.88,31.87,15,6,16,0.02
2013-10-22,67.1,59.6,56.1,60.4,54.8,53.3,93,85,65,33.42,32.32,14,6,20,0.00
2013-10-23,56.3,52.9,46.2,54.3,46.0,39.5,93,78,56,33.24,27.95,23,12,28,0.37
2013-10-24,61.2,52.6,45.7,54.2,47.7,40.2,91,83,76,31.17,27.02,19,6,19,0.17
2013-10-25,64.4,58.6,55.2,58.2,53.7,50.9,96,84,71,33.27,29.80,21,7,22,0.39
2013-10-26,59.0,53.5,49.6,51.9,46.8,43.8,86,78,62,33.00,31.98,21,8,31,1.29
2013-10-27,58.6,54.1,50.7,47.5,44.9,41.4,85,71,63,32.31,30.83,37,16,42,4.07
2013-10-28,56.1,51.0,47.1,45.0,42.6,39.2,84,74,57,32.56,30.69,29,15,31,0.82
2013-10-29,52.5,47.7,43.9,42.5,38.8,36.5,85,71,63,31.63,28.73,26,12,26,0.01
2013-10-30,59.9,49.6,43.0,52.7,42.7,38.2,84,77,65,33.48,27.55,27,7,38,0.42
2013-10-31,60.1,52.4,49.6,45.6,42.6,39.9,78,69,55,33.03,30.94,21,10,29,0.20
2013-11-1,50.7,48.8,47.5,42.2,40.9,40.1,77,74,71,32.25,30.69,13,6,16,0.00
2013-11-2,53.8,45.3,38.8,41.5,37.9,34.7,89,76,60,30.64,27.02,35,15,35,7.71
2013-11-3,53.1,46.3,41.9,40.4,37.8,34.7,84,72,57,30.90,27.02,27,10,27,0.07
2013-11-4,48.9,42.9,38.8,40.2,35.9,33.7,85,77,65,30.61,27.05,17,7,17,0.02
2013-11-5,53.1,48.9,44.8,46.1,41.5,37.6,90,76,65,30.60,27.46,32,14,32,1.65
2013-11-6,51.1,47.7,44.1,46.1,41.9,38.0,91,80,75,31.19,27.31,17,6,17,0.00
2013-11-7,53.6,47.7,42.6,40.3,38.0,34.1,81,69,54,31.17,27.01,31,10,31,0.12
2013-11-8,51.8,46.9,41.9,38.9,37.1,34.1,75,69,59,31.27,26.98,23,8,23,0.00
2013-11-9,49.6,44.4,39.2,38.6,36.6,33.7,86,74,64,31.44,27.71,17,8,18,0.00
2013-11-10,54.3,45.8,39.7,49.5,38.6,34.0,92,77,51,31.99,27.36,21,9,24,0.04
2013-11-11,59.7,56.2,52.0,54.6,50.3,44.7,91,81,72,33.08,29.93,27,11,30,0.04
2013-11-12,53.1,48.8,44.2,44.8,40.2,36.8,82,73,58,32.36,30.54,17,9,22,0.00
2013-11-13,53.2,48.7,43.3,44.0,39.4,35.2,82,71,56,32.45,29.16,30,12,34,0.09
2013-11-14,50.0,47.1,44.1,40.8,38.3,36.8,80,71,63,32.15,29.59,27,14,33,0.00
2013-11-15,52.7,49.9,46.8,43.8,41.3,38.0,75,72,68,32.86,29.43,16,7,18,0.00
2013-11-16,54.3,52.1,50.7,48.1,44.3,42.0,86,75,70,32.41,30.62,15,7,19,0.00
2013-11-17,56.8,52.7,50.4,52.4,49.2,47.8,94,88,79,32.56,30.88,10,3,13,0.03
2013-11-18,52.3,44.3,37.4,48.9,39.7,33.0,93,84,70,32.17,29.91,17,9,19,0.03
2013-11-19,45.5,39.3,34.5,37.4,31.6,29.0,83,74,62,30.89,26.59,28,14,34,0.00
2013-11-20,47.8,44.6,40.1,41.1,35.8,30.0,85,71,58,30.83,26.61,30,19,37,0.80
2013-11-21,41.5,40.0,38.8,31.5,30.4,29.5,71,68,64,30.84,26.59,19,13,28,0.00
2013-11-22,42.6,38.3,37.4,34.9,32.2,29.9,81,78,69,33.14,26.59,8,7,11,0.00
2013-11-23,46.2,41.8,39.0,41.2,36.3,32.4,89,81,76,34.99,28.83,11,7,15,0.00
2013-11-24,47.3,45.6,44.4,42.1,40.7,39.3,88,83,77,34.42,30.80,8,4,11,0.00
2013-11-25,48.6,45.2,43.9,39.5,36.6,34.7,82,72,59,34.83,30.95,9,5,10,0.00
2013-11-26,48.6,46.5,43.3,40.7,39.1,37.3,84,75,74,34.34,31.42,12,8,19,0.00
2013-11-27,50.2,48.8,45.5,42.9,41.8,40.5,86,77,74,35.36,34.61,16,8,19,0.00
2013-11-28,50.4,50.1,49.1,46.5,42.8,42.2,87,76,74,35.44,29.94,14,7,14,0.00
2013-11-29,50.5,47.8,43.9,44.9,40.9,38.1,86,77,71,31.76,28.41,28,15,30,0.06
2013-11-30,47.3,44.2,41.7,42.5,39.4,37.2,86,83,78,31.38,26.59,19,9,20,0.00
2013-12-1,51.3,48.2,45.7,44.4,43.1,41.4,91,83,74,32.16,26.99,11,5,13,0.00
2013-12-2,52.3,48.0,44.6,43.4,40.7,36.8,91,76,63,31.24,27.14,8,3,10,0.00
2013-12-3,51.4,48.7,41.7,45.1,42.2,36.5,85,78,75,30.29,26.92,19,9,27,0.01
2013-12-4,45.1,43.4,43.0,41.5,37.3,34.0,90,79,69,28.84,26.59,19,13,22,0.00
2013-12-5,44.2,43.8,41.7,37.0,35.5,34.8,82,73,71,28.28,26.59,19,18,22,0.00
2013-12-6,43.9,43.2,41.9,40.9,39.2,36.2,89,86,80,31.17,26.59,14,8,19,0.00
2013-12-7,51.1,46.7,43.9,42.0,41.2,39.6,89,81,70,32.73,28.70,14,6,18,0.00
2013-12-8,55.2,52.4,49.3,45.3,43.6,41.4,76,72,67,31.67,29.23,29,18,29,0.21
2013-12-9,62.6,52.8,50.0,45.9,43.0,39.5,76,69,53,33.05,29.56,25,11,25,0.04
2013-12-10,56.8,53.4,50.0,49.3,44.3,39.5,81,71,58,33.05,29.56,18,6,22,0.04
2013-12-11,55.6,52.1,50.5,49.0,45.1,42.6,82,77,74,32.99,28.99,31,11,31,0.00
2013-12-12,63.7,57.5,53.6,53.7,51.1,45.9,91,79,70,33.00,30.34,26,9,29,0.03
2013-12-13,57.2,51.8,42.8,52.2,42.8,32.8,89,72,54,32.97,29.61,28,12,33,0.05
2013-12-14,55.2,51.3,41.9,46.6,42.9,32.7,80,73,61,31.47,28.28,34,20,44,0.50
2013-12-15,57.2,53.8,47.1,46.7,45.2,41.3,86,73,59,31.88,28.97,34,24,39,1.63
2013-12-16,51.8,45.6,41.9,43.8,36.3,32.6,85,70,62,32.62,28.36,21,12,27,0.03
2013-12-17,50.4,45.2,40.5,39.6,34.1,29.4,71,65,55,31.01,26.79,26,10,26,0.01
2013-12-18,54.1,49.7,41.9,50.7,43.0,31.7,91,78,64,31.78,27.14,35,14,39,0.77
2013-12-19,41.4,39.4,38.3,33.3,31.7,28.6,78,74,61,30.63,26.59,28,16,36,0.17
2013-12-20,55.8,48.2,39.0,47.1,40.2,32.4,78,74,63,34.41,28.01,43,21,49,13.94
2013-12-21,52.0,48.5,41.4,43.3,38.4,32.3,87,68,58,33.57,29.05,36,20,37,0.75
2013-12-22,44.1,41.6,37.9,34.8,32.8,30.7,82,71,62,30.89,27.47,33,19,35,0.20
2013-12-23,54.0,47.4,38.7,47.1,40.3,31.1,88,77,65,31.60,26.59,31,17,46,0.60
2013-12-24,53.2,42.0,39.7,33.9,29.3,23.0,73,61,47,34.19,28.18,48,25,49,4.94
2013-12-25,51.1,41.8,38.1,33.6,30.3,27.6,71,64,46,31.92,26.71,14,5,16,0.00
2013-12-26,53.8,43.0,32.0,47.3,37.0,29.6,91,73,52,34.97,26.59,39,11,42,0.91
2013-12-27,53.2,35.3,32.0,46.0,37.9,29.3,77,40,76,31.95,0.00,57,14,57,0.00
2013-12-28,46.4,41.4,32.0,36.0,33.8,29.3,81,74,64,31.78,28.94,28,13,28,0.00
2013-12-29,53.1,45.0,40.1,47.0,37.1,31.8,89,74,60,31.94,27.15,21,12,27,0.05
2013-12-30,53.4,47.4,41.9,48.0,41.6,38.7,92,80,71,31.04,28.96,21,12,25,0.23
2013-12-31,48.9,46.9,40.1,40.0,36.8,33.1,84,69,55,29.81,28.76,10,7,57,0.26
2014-1-1,51.8,45.7,39.9,46.6,39.2,33.9,94,79,56,34.08,26.59,30,12,57,0.37
2014-1-2,52.3,46.8,32.0,46.4,38.3,35.3,91,71,56,32.47,26.59,35,12,35,0.15